Weather History for Boomvang, TX

Change the Weather History Date:

Sunday, March 9, 2014

  Actual Average Record
Temperature  
Mean Temperature 66 °F -  
Max Temperature 68 °F - - ()
Min Temperature 64 °F - - ()
Cooling Degree Days 1    
Growing Degree Days 16 (Base 50)    
Moisture  
Dew Point 63 °F    
Average Humidity 89    
Maximum Humidity 94    
Minimum Humidity 83    
Precipitation  
Precipitation 0.00 in - - ()
Sea Level Pressure  
Sea Level Pressure 30.12 in    
Wind  
Wind Speed 19 mph (ENE)    
Max Wind Speed 37 mph    
Max Gust Speed 38 mph    
Visibility 8 miles    
Events      
T = Trace of Precipitation, MM = Missing Value Source: NWS Daily Summary

Daily Weather History Graph

Daily Weather History Graph

Search for Another Location

Airport:

Trip Planner

Search our weather history database for the weather conditions in past years. The results will help you decide how hot, cold, wet, or windy it might be!

Date:

Astronomy

Mar. 09, 2014 Rise Set
Actual Time 7:34 AM CDT 7:23 PM CDT
Civil Twilight 7:11 AM CDT 7:47 PM CDT
Nautical Twilight 6:44 AM CDT 8:14 PM CDT
Astronomical Twilight 6:17 AM CDT 8:41 PM CDT
Moon 1:39 PM CDT (3/9) 3:38 AM CDT (3/9)
Length of Visible Light 12h 36m
Length of Day
11h 49m
First Quarter, 61% of the Moon is Illuminated
Mar 9
First Quarter
Mar 16
Full
Mar 23
Last Quarter
Mar 30
New
Apr 7
First Quarter

Hourly Weather History & Observations

Time (CDT) Temp. Dew Point Humidity Pressure Visibility Wind Dir Wind Speed Gust Speed Precip Events Conditions
12:15 AM 68.0 °F 64.4 °F 88% 30.08 in 10.0 mi East 13.8 mph - N/A   Overcast
12:35 AM 68.0 °F 64.4 °F 88% 30.08 in 10.0 mi East 13.8 mph - N/A   Overcast
12:55 AM 68.0 °F 64.4 °F 88% 30.09 in 10.0 mi East 13.8 mph - N/A   Overcast
1:15 AM 68.0 °F 64.4 °F 88% 30.08 in 10.0 mi East 13.8 mph - N/A   Overcast
1:35 AM 68.0 °F 64.4 °F 88% 30.07 in 10.0 mi East 16.1 mph - N/A   Overcast
1:55 AM 68.0 °F 64.4 °F 88% 30.08 in 10.0 mi East 16.1 mph - N/A   Overcast
3:15 AM 68.0 °F 64.4 °F 88% 30.07 in 10.0 mi East 16.1 mph - N/A   Overcast
3:35 AM 68.0 °F 64.4 °F 88% 30.07 in 10.0 mi East 17.3 mph - N/A   Overcast
3:55 AM 68.0 °F 64.4 °F 88% 30.07 in 10.0 mi East 18.4 mph - N/A   Overcast
4:15 AM 68.0 °F 64.4 °F 88% 30.08 in 10.0 mi East 17.3 mph - N/A   Overcast
4:35 AM 68.0 °F 64.4 °F 88% 30.09 in 10.0 mi East 17.3 mph - N/A   Overcast
4:55 AM 68.0 °F 64.4 °F 88% 30.09 in 9.0 mi ENE 18.4 mph - N/A   Mostly Cloudy
5:15 AM 68.0 °F 64.4 °F 88% 30.08 in 4.0 mi East 19.6 mph - N/A   Mostly Cloudy
5:35 AM 68.0 °F 64.4 °F 88% 30.08 in 10.0 mi East 21.9 mph - N/A   Overcast
5:55 AM 68.0 °F 64.4 °F 88% 30.08 in 10.0 mi East 23.0 mph - N/A   Overcast
6:15 AM 68.0 °F 64.4 °F 88% 30.08 in 10.0 mi East 25.3 mph - N/A   Overcast
6:35 AM 68.0 °F 64.4 °F 88% 30.09 in 10.0 mi East 24.2 mph - N/A   Overcast
7:15 AM 68.0 °F 64.4 °F 88% 30.10 in 10.0 mi East 25.3 mph - N/A   Overcast
7:35 AM 68.0 °F 64.4 °F 88% 30.11 in 10.0 mi East 24.2 mph - N/A   Overcast
7:55 AM 68.0 °F 64.4 °F 88% 30.12 in 10.0 mi ENE 21.9 mph - N/A   Overcast
8:15 AM 68.0 °F 64.4 °F 88% 30.13 in 9.0 mi ENE 23.0 mph - N/A   Overcast
8:35 AM 68.0 °F 64.4 °F 88% 30.14 in 8.0 mi NE 20.7 mph 26.5 mph N/A   Overcast
8:55 AM 68.0 °F 64.4 °F 88% 30.15 in 2.5 mi NE 12.7 mph 25.3 mph N/A   Mostly Cloudy
9:15 AM 66.2 °F 64.4 °F 94% 30.16 in 2.5 mi NE 18.4 mph 26.5 mph N/A   Scattered Clouds
9:35 AM 66.2 °F 64.4 °F 94% 30.17 in 2.5 mi NE 13.8 mph 26.5 mph N/A   Scattered Clouds
9:55 AM 66.2 °F 64.4 °F 94% 30.18 in 3.0 mi NNE 12.7 mph 23.0 mph N/A   Mostly Cloudy
10:15 AM 66.2 °F 64.4 °F 94% 30.19 in 2.0 mi NNE 13.8 mph 23.0 mph N/A   Mostly Cloudy
10:35 AM 66.2 °F 64.4 °F 94% 30.19 in 1.2 mi NNE 15.0 mph 24.2 mph N/A   Mostly Cloudy
10:55 AM 64.4 °F 62.6 °F 94% 30.20 in 1.5 mi NNE 16.1 mph 25.3 mph N/A   Mostly Cloudy
11:15 AM 64.4 °F 62.6 °F 94% 30.19 in 1.5 mi NE 18.4 mph 28.8 mph N/A   Mostly Cloudy
11:35 AM 64.4 °F 62.6 °F 94% 30.18 in 1.2 mi ENE 32.2 mph - N/A   Mostly Cloudy
11:55 AM 64.4 °F 62.6 °F 94% 30.12 in 1.2 mi ENE 36.8 mph - N/A   Scattered Clouds
12:15 PM 64.4 °F 60.8 °F 88% 30.12 in 2.0 mi East 34.5 mph - N/A   Partly Cloudy
12:35 PM 64.4 °F 62.6 °F 94% 30.10 in 6.0 mi East 31.1 mph 38.0 mph N/A   Scattered Clouds
12:55 PM 64.4 °F 62.6 °F 94% 30.12 in 9.0 mi ENE 33.4 mph - N/A   Partly Cloudy
1:15 PM 64.4 °F 62.6 °F 94% 30.11 in 10.0 mi ENE 29.9 mph 38.0 mph N/A   Scattered Clouds
1:35 PM 64.4 °F 62.6 °F 94% 30.10 in 10.0 mi ENE 33.4 mph - N/A   Mostly Cloudy
1:55 PM 64.4 °F 60.8 °F 88% 30.10 in 10.0 mi East 29.9 mph - N/A   Mostly Cloudy
2:15 PM 66.2 °F 62.6 °F 88% 30.09 in 9.0 mi East 29.9 mph - N/A   Partly Cloudy
2:35 PM 66.2 °F 62.6 °F 88% 30.09 in 9.0 mi East 25.3 mph - N/A   Clear
2:55 PM 66.2 °F 62.6 °F 88% 30.07 in 8.0 mi East 24.2 mph - N/A   Partly Cloudy
3:15 PM 66.2 °F 62.6 °F 88% 30.07 in 8.0 mi East 26.5 mph - N/A   Partly Cloudy
3:35 PM 66.2 °F 62.6 °F 88% 30.07 in 8.0 mi East 20.7 mph 26.5 mph N/A   Partly Cloudy
3:55 PM 66.2 °F 64.4 °F 94% 30.09 in 8.0 mi ENE 19.6 mph - N/A   Scattered Clouds
4:15 PM 66.2 °F 64.4 °F 94% 30.10 in 9.0 mi ENE 16.1 mph - N/A   Mostly Cloudy
4:35 PM 66.2 °F 64.4 °F 94% 30.10 in 9.0 mi NNE 10.4 mph - N/A   Overcast
4:55 PM 66.2 °F 62.6 °F 88% 30.10 in 9.0 mi NNE 11.5 mph 19.6 mph N/A   Overcast
5:15 PM 66.2 °F 60.8 °F 83% 30.08 in 10.0 mi NNE 11.5 mph 20.7 mph N/A   Overcast
5:35 PM 64.4 °F 62.6 °F 94% 30.10 in 6.0 mi NNE 10.4 mph 25.3 mph N/A   Mostly Cloudy
5:55 PM 64.4 °F 60.8 °F 88% 30.12 in 8.0 mi NNE 11.5 mph 19.6 mph N/A   Mostly Cloudy
6:15 PM 64.4 °F 60.8 °F 88% 30.12 in 7.0 mi NNE 12.7 mph 20.7 mph N/A   Mostly Cloudy
6:35 PM 64.4 °F 60.8 °F 88% 30.11 in 5.0 mi NNE 12.7 mph 23.0 mph N/A   Mostly Cloudy
6:55 PM 64.4 °F 60.8 °F 88% 30.11 in 7.0 mi NNE 12.7 mph 25.3 mph N/A   Mostly Cloudy
7:15 PM 64.4 °F 60.8 °F 88% 30.12 in 9.0 mi NNE 12.7 mph 27.6 mph N/A   Mostly Cloudy
7:35 PM 64.4 °F 60.8 °F 88% 30.12 in 7.0 mi NE 19.6 mph 26.5 mph N/A   Mostly Cloudy
7:55 PM 64.4 °F 60.8 °F 88% 30.12 in 10.0 mi ENE 24.2 mph - N/A   Mostly Cloudy
8:15 PM 64.4 °F 60.8 °F 88% 30.13 in 10.0 mi ENE 20.7 mph - N/A   Overcast
8:35 PM 64.4 °F 60.8 °F 88% 30.13 in 10.0 mi ENE 24.2 mph - N/A   Mostly Cloudy
8:55 PM 66.2 °F 60.8 °F 83% 30.14 in 10.0 mi ENE 27.6 mph - N/A   Scattered Clouds
9:15 PM 64.4 °F 60.8 °F 88% 30.15 in 10.0 mi ENE 24.2 mph - N/A   Mostly Cloudy
9:35 PM 66.2 °F 60.8 °F 83% 30.16 in 10.0 mi ENE 25.3 mph - N/A   Overcast
9:55 PM 66.2 °F 60.8 °F 83% 30.17 in 10.0 mi ENE 21.9 mph 28.8 mph N/A   Overcast
10:15 PM 66.2 °F 60.8 °F 83% 30.17 in 10.0 mi ENE 23.0 mph - N/A   Overcast
10:35 PM 66.2 °F 60.8 °F 83% 30.17 in 10.0 mi ENE 25.3 mph - N/A   Overcast
10:55 PM 66.2 °F 60.8 °F 83% 30.17 in 10.0 mi ENE 24.2 mph - N/A   Overcast
11:15 PM 66.2 °F 60.8 °F 83% 30.17 in 10.0 mi ENE 20.7 mph - N/A   Overcast
11:35 PM 66.2 °F 60.8 °F 83% 30.16 in 10.0 mi ENE 19.6 mph - N/A   Overcast
11:55 PM 66.2 °F 60.8 °F 83% 30.16 in 10.0 mi ENE 19.6 mph - N/A   Overcast
12:15 AM 68.0 °F 62.6 °F 83% 30.16 in 10.0 mi ENE 16.1 mph - N/A   Overcast
12:35 AM 66.2 °F 62.6 °F 88% 30.16 in 10.0 mi ENE 16.1 mph - N/A   Overcast
12:55 AM 68.0 °F 62.6 °F 83% 30.18 in 10.0 mi ENE 11.5 mph - N/A   Overcast